Content
SEND FEEDBACK

Daily
Averages
Monthly
Summary
United States of America

MILAN, MICHIGAN


Home > North America > United States > Michigan
Elevation: 660 feet     Latitude: 42 05N     Longitude: 083 35W

WEATHER
 
SELECT A DAY
Number of Records: 202,607;   Date Range: 1/1/95 - 7/29/14
 
SHARE

PRINT THIS DATA

[ ← Previous Day ]
WEATHER ALMANAC - NOVEMBER 12, 2013
[ Next Day → ]
[ °C ]   °F
Weather ElementAverageHighLow
Temperature30.2 °F37 °F (2:53 pm)25 °F (5:53 am)
Dewpoint17.3 °F21 °F (9:53 am)15.1 °F (2:53 am)
Humidity59.5 %69 % (5:53 am)46 % (2:53 pm)
Barometer30.50 in30.56 in (11:53 pm)30.34 in (2:03 am)
Wind Speed11.6 mph19.6 mph (1:53 pm)
Wind Gust26.5 mph (10:53 am)
Weather ElementAverage
Visibility10 mi
Wind DirectionNW (318.3 °)

Weather ElementTotal
Precipitation---
Heating Degree Days34 (Base 65)
Averaged from 24 records on November 12, 2013
WEATHER CONDITIONS BREAKOUT
WIND DIRECTION BREAKOUT
WEATHER BY HOUR - NOVEMBER 12, 2013
[ °C ]   °F
Local TimeTemperatureDewpointHumidityBarometerVisibilityWind DirectionWind SpeedGust SpeedPrecipitationEventsConditions
1:53 AM30.0 °F19.9 °F66 %30.35 in10.0 miNNW (340°)12.7 mph0.00 inOvercast
2:03 AM30.2 °F19.4 °F64 %30.34 in10.0 miNW (320°)12.7 mphOvercast
2:53 AM28.0 °F15.1 °F58 %30.38 in10.0 miNNW (340°)15.0 mphClear
3:53 AM26.1 °F15.1 °F63 %30.40 in10.0 miNNW (330°)10.4 mphClear
4:53 AM26.1 °F16.0 °F66 %30.43 in10.0 miNNW (330°)11.5 mphClear
5:53 AM25.0 °F16.0 °F69 %30.45 in10.0 miNW (320°)8.1 mphClear
6:53 AM26.1 °F17.1 °F69 %30.47 in10.0 miNNW (340°)11.5 mphClear
7:53 AM27.0 °F18.0 °F69 %30.51 in10.0 miNNW (330°)11.5 mphClear
8:53 AM28.9 °F19.9 °F69 %30.53 in10.0 miNW (320°)12.7 mphClear
9:53 AM30.9 °F21.0 °F67 %30.53 in10.0 miNNW (330°)10.4 mphClear
10:53 AM33.1 °F21.0 °F61 %30.54 in10.0 miNorth (350°)18.4 mph26.5 mphClear
11:53 AM34.0 °F19.9 °F56 %30.54 in10.0 miNorth (350°)16.1 mph21.9 mphScattered Clouds
12:53 PM35.1 °F19.9 °F54 %30.53 in10.0 miNNW (330°)17.3 mph23.0 mphMostly Cloudy
1:53 PM34.0 °F18.0 °F52 %30.52 in10.0 miNW (310°)19.6 mph23.0 mphScattered Clouds
2:53 PM37.0 °F18.0 °F46 %30.53 in10.0 miNNW (330°)11.5 mphMostly Cloudy
3:53 PM34.0 °F16.0 °F48 %30.53 in10.0 miNW (310°)12.7 mphClear
4:53 PM33.1 °F16.0 °F50 %30.52 in10.0 miNW (320°)9.2 mphMostly Cloudy
5:53 PM32.0 °F16.0 °F52 %30.51 in10.0 miWNW (290°)8.1 mphMostly Cloudy
6:53 PM30.9 °F17.1 °F57 %30.53 in10.0 miWNW (300°)9.2 mphScattered Clouds
7:53 PM32.0 °F15.1 °F50 %30.54 in10.0 miNW (310°)12.7 mphScattered Clouds
8:53 PM30.0 °F15.1 °F54 %30.54 in10.0 miWNW (290°)10.4 mphScattered Clouds
9:53 PM28.0 °F16.0 °F61 %30.55 in10.0 miWNW (290°)8.1 mphClear
10:53 PM26.1 °F15.1 °F63 %30.55 in10.0 miWNW (290°)4.6 mphClear
11:53 PM26.1 °F15.1 °F63 %30.56 in10.0 miWest (270°)4.6 mphClear
Hourly data recorded from KYIP, located miles away from Milan, Michigan







STORIES FROM OUR PARTNERS